GFSMW_con_mucape_159.txt.gz
CAPE
10 7 11 24 0 9 7 0 0 2 0 1 15 73 403 278 215 222 167 109 122 129 373 276 377 654 925 763 179 731 492 530 542 350 0 4 0 158 13 28 7 3 136
0 13 32 44 20 0 8 0 0 0 0 1 66 353 271 133 121 188 147 126 249 290 707 684 283 496 1102 787 779 552 311 347 833 720 132 13 3 109 265 161 155 164 166
0 12 34 32 31 0 4 35 44 23 0 0 107 444 88 165 218 195 170 169 100 452 839 834 266 324 946 779 782 961 906 613 812 570 693 293 222 257 211 164 154 217 180
0 6 26 41 8 0 39 66 109 61 48 21 129 248 177 254 386 253 216 185 156 127 576 634 455 489 323 1167 665 1066 1127 791 411 585 778 806 759 581 363 154 205 191 475
0 4 29 80 32 3 34 105 151 131 93 93 161 138 99 307 577 536 357 275 201 165 256 463 412 886 1012 488 394 742 1019 1127 1147 800 796 607 629 642 374 248 187 299 674
20 16 19 113 102 30 27 60 137 163 140 134 145 129 122 190 435 557 434 477 381 243 354 514 531 377 841 754 559 412 785 980 1078 1097 796 712 427 592 479 331 305 427 552
90 44 46 126 153 87 108 160 135 162 170 183 163 152 133 114 378 693 596 473 385 441 455 923 832 1044 972 670 812 690 670 738 902 1094 888 860 837 761 740 503 369 412 322
229 97 81 150 181 156 205 409 221 167 206 180 214 172 175 84 258 714 858 633 498 692 628 615 1127 1125 1085 987 870 804 855 637 755 729 688 669 1049 1039 768 589 493 483 229
547 353 177 185 203 201 198 529 455 265 248 196 248 347 419 333 346 496 745 979 890 796 584 776 803 949 1026 1079 1134 1009 985 868 899 772 849 882 878 869 674 875 728 534 371
631 520 403 257 209 245 167 257 639 430 324 272 224 245 481 764 862 785 596 658 814 978 979 834 829 813 836 997 1062 1066 923 859 934 902 862 780 671 645 831 988 880 627 462
583 585 531 391 335 285 247 276 530 658 526 466 405 392 367 442 781 1040 1101 891 686 714 685 654 624 635 478 718 897 1029 894 906 883 903 875 608 549 663 673 744 688 736 669
432 504 550 552 495 431 466 486 590 803 720 710 702 754 692 614 658 860 999 1116 1296 1213 867 843 807 808 896 767 1038 938 935 960 886 830 743 595 759 761 751 560 746 605 633
392 427 459 615 612 502 683 776 814 818 853 1159 1078 1242 1088 1083 980 774 735 961 1206 1336 1217 1140 1084 1045 1017 877 852 864 823 882 870 715 781 686 757 773 542 655 708 821 801
612 579 547 575 650 583 753 1052 1215 1150 1036 1266 1285 1401 1526 1436 1447 1385 1319 1303 999 650 536 560 584 712 878 823 889 819 769 821 910 789 814 869 697 645 571 646 663 791 718
688 684 670 565 481 454 428 872 1540 1492 1420 1483 1502 1416 1451 1658 1668 1646 1480 1146 702 190 74 55 141 180 477 730 954 924 743 805 833 943 1104 1071 1009 909 674 707 629 686 649
789 744 707 794 577 496 332 448 1313 1681 1665 1719 1807 1645 1494 1541 1531 1624 1643 1581 949 598 401 44 0 123 157 105 192 393 887 999 993 1127 1073 1092 1139 1060 838 768 901 1050 898
905 930 930 867 1383 1017 852 1107 1455 1681 1793 2012 2033 1673 1152 1392 1361 1656 1373 1274 1287 904 813 513 456 398 90 12 15 85 422 747 868 884 987 1003 963 1002 1026 992 955 964 926
807 590 584 535 388 1313 1346 1459 1638 1684 1768 1649 1525 1304 1152 1206 1259 1167 1115 1102 985 806 829 1189 1490 879 581 755 660 559 686 628 626 871 1048 1055 1025 1044 1020 957 883 824 842
817 776 571 179 44 74 1043 1559 1753 1805 1606 1308 1157 990 926 966 912 792 641 507 180 51 28 8 20 86 157 437 711 672 607 628 640 671 706 828 973 1075 1070 885 841 803 806
906 752 381 105 18 844 941 1673 1575 1418 1212 1032 1012 789 794 721 474 238 3 0 0 0 0 0 0 0 0 0 0 0 0 125 455 516 533 490 584 846 936 860 710 515 548
461 571 1004 818 817 1064 1208 1468 1306 1291 1152 945 811 681 507 245 6 0 0 0 0 0 0 0 0 0 0 0 0 0 0 0 0 32 536 642 843 946 798 777 654 491 373
1148 1548 1183 1438 1602 1569 1609 1502 1323 1155 956 811 594 379 59 0 0 0 0 0 0 0 0 0 0 0 0 0 0 0 0 0 0 0 18 687 781 940 1015 860 791 597 348
1249 1611 1782 1673 1531 1472 1364 968 971 875 640 307 26 0 0 0 0 0 0 0 0 0 0 0 0 0 0 0 0 0 0 0 1 0 0 91 651 851 1047 1037 835 541 504
1069 1712 1717 1436 1263 1294 1144 1048 865 410 146 7 0 0 0 0 0 0 0 0 0 0 0 0 0 0 0 0 0 0 1 3 11 5 3 6 197 785 736 789 591 446 357
999 1554 1559 1301 1082 941 906 488 212 82 31 0 0 0 0 0 0 0 0 0 0 0 0 0 0 0 0 0 1 15 10 29 49 30 23 4 14 409 631 419 407 397 442
976 1268 1397 1249 1052 740 589 301 178 39 0 0 0 0 0 0 0 0 0 0 0 0 0 0 0 0 0 0 6 15 40 16 26 29 21 17 14 170 359 319 287 399 287

GFSMW_con_mucape_162.txt.gz
CAPE
0 0 0 0 0 5 0 0 0 0 9 21 20 30 50 111 204 273 232 204 118 128 355 279 349 551 839 770 267 696 568 480 777 416 99 8 0 28 35 80 19 32 103
0 0 0 0 0 2 11 0 0 0 0 2 11 36 77 167 229 173 201 179 145 132 346 392 445 338 997 781 801 549 404 400 721 502 224 65 121 265 184 167 131 129 163
10 0 7 13 0 0 0 0 0 0 0 0 0 46 192 161 118 142 176 186 172 316 579 708 575 232 797 752 755 870 818 789 632 599 641 513 296 339 285 354 178 171 245
40 0 3 21 20 0 0 18 6 0 0 0 0 50 199 117 99 161 144 164 217 145 445 721 718 348 280 840 768 924 929 755 542 689 613 684 711 579 916 258 166 289 526
114 25 52 40 33 19 0 0 15 0 0 0 0 7 151 151 100 231 259 226 177 159 160 362 532 503 603 581 582 775 901 881 995 946 889 505 524 474 313 250 155 411 390
199 129 237 20 34 24 0 0 6 24 1 0 3 0 52 150 102 322 466 451 253 262 186 329 322 484 578 851 776 428 688 888 1041 965 903 1041 815 713 439 430 361 298 397
201 300 141 0 7 34 22 0 26 40 60 55 52 28 36 109 77 232 421 488 360 308 350 416 568 610 553 499 592 557 524 673 818 923 1050 814 869 680 595 515 505 341 234
246 296 237 5 5 18 62 9 27 51 63 111 113 94 102 151 152 167 348 553 575 344 386 413 816 929 956 904 828 760 752 614 598 632 648 775 841 859 931 790 724 703 320
362 317 316 71 27 31 123 143 91 66 116 130 172 152 158 156 166 80 275 610 782 712 432 590 705 831 995 1042 874 946 888 874 802 819 730 652 787 836 878 728 723 693 487
415 370 248 159 140 96 151 207 203 129 126 220 245 198 210 243 226 196 157 340 592 803 870 862 775 715 762 792 806 901 906 827 898 760 799 826 749 706 751 1031 805 907 595
545 500 475 338 260 235 183 230 445 290 176 176 215 246 238 291 395 399 471 541 595 525 634 677 631 560 537 538 666 893 1010 702 899 898 1020 1008 812 915 970 801 749 772 616
558 654 666 627 534 418 359 271 363 508 367 280 280 276 292 291 376 536 619 722 854 925 886 773 721 618 700 688 725 890 1104 761 835 879 675 863 834 887 819 854 1042 1100 891
313 524 655 707 591 498 475 413 320 603 584 409 400 330 406 443 393 460 585 664 729 879 965 1036 889 808 863 918 895 910 955 795 845 928 798 845 830 846 734 846 870 879 847
372 415 465 558 565 538 562 571 454 518 715 783 688 706 723 551 781 751 713 923 1034 902 912 823 628 609 693 729 683 688 624 740 821 887 788 872 797 848 905 819 903 1035 961
589 528 456 458 531 521 508 688 706 698 729 1032 1088 1143 1194 1017 1325 1167 1132 1162 1069 986 885 628 205 88 206 414 555 540 549 615 735 827 842 861 801 595 794 868 955 951 968
615 644 616 637 649 586 534 884 1083 1045 904 906 1127 1187 1186 1415 1481 1366 1328 1335 1228 1047 884 691 547 275 167 14 4 92 275 398 807 925 1062 995 816 826 866 848 833 749 1000
669 769 806 767 727 524 383 354 823 1213 1147 1164 1408 1429 1386 751 936 1192 1364 1404 1412 1347 1174 1041 771 622 483 232 220 120 74 27 100 485 1027 1077 1101 825 1009 789 877 845 792
838 836 845 844 1102 776 505 705 1086 1265 1341 1430 1556 1513 1184 469 414 930 1220 1181 1093 1007 823 625 491 436 564 551 564 502 453 54 162 267 447 643 771 951 916 1108 1133 818 820
768 617 406 348 1078 1371 831 982 1193 1356 1492 1289 1471 1195 978 605 503 791 781 520 361 175 52 0 0 0 0 0 9 45 182 359 367 240 341 517 590 785 860 959 1003 942 664
668 515 472 500 499 439 1288 1157 1178 1304 1152 1113 965 743 442 508 442 335 264 137 11 0 0 0 0 0 0 0 0 0 0 0 0 0 10 88 432 519 552 638 926 847 604
477 591 796 682 915 852 768 600 342 513 744 831 691 452 445 416 313 205 53 0 0 0 0 0 0 0 0 0 0 0 0 0 0 0 0 19 9 169 429 436 668 666 637
489 650 809 569 765 895 714 484 248 481 512 486 556 521 403 273 72 0 0 0 0 0 0 0 0 0 0 0 0 0 0 0 0 0 0 13 4 183 397 634 598 556 490
670 801 966 1003 1042 1150 1050 620 540 581 555 587 440 214 18 0 0 0 0 0 0 0 0 0 0 0 0 0 0 0 0 0 0 0 0 0 1 16 520 781 1036 922 611
934 922 1194 1195 1331 1465 1182 940 622 444 401 399 150 0 0 0 0 0 0 0 0 0 0 0 0 0 0 0 0 0 0 0 0 0 1 0 0 0 42 688 948 1026 758
1267 1642 1780 1704 1480 1309 1016 610 463 342 98 2 0 0 0 0 0 0 0 0 0 0 0 0 0 0 0 0 0 0 8 16 4 17 9 10 7 9 11 218 412 414 951
1560 1686 1733 1589 1317 1081 888 599 279 79 8 0 0 0 0 0 0 0 0 0 0 0 0 0 0 0 0 0 0 1 6 10 31 11 11 14 8 8 27 320 243 526 553

GFSMW_con_mucape_165.txt.gz
CAPE
21 14 0 0 3 50 58 71 91 101 90 5 45 97 106 95 224 409 1177 1354 736 978 1630 1128 1463 1744 2090 2008 1374 1797 1536 1009 1983 1664 937 852 436 245 457 630 239 326 490
30 10 0 0 18 89 70 90 114 170 96 35 39 149 179 162 320 446 498 932 1048 988 923 1663 1578 1382 2067 2294 2210 2002 1386 1274 1952 1554 1218 643 410 1030 595 907 522 859 925
35 64 63 61 42 94 135 130 154 126 138 67 75 150 305 264 399 749 724 904 1055 1153 1297 1806 1938 1452 2106 1861 2221 2101 2304 1146 1356 1910 1721 711 480 1174 1194 964 936 1250 1499
23 39 85 98 110 158 136 174 199 104 117 114 96 225 219 246 607 920 903 978 1101 1156 1320 1662 2111 1806 1344 1885 1984 1934 2260 2117 1645 1180 1363 1713 1565 1913 409 932 860 1175 1326
49 3 61 125 180 190 143 173 284 124 117 141 202 188 254 461 625 662 1359 1400 1352 1177 976 1477 1945 2040 1756 1786 2092 2165 2370 1854 1597 1745 980 1522 1451 1313 1994 748 658 713 1095
193 39 39 104 233 189 122 164 304 326 131 149 172 224 272 565 662 692 952 1201 1223 1162 1225 1116 1539 1717 1780 2086 1982 2013 1840 1857 1938 1537 2570 1863 1284 901 1657 1087 881 760 866
389 144 55 136 177 173 98 170 367 409 240 116 136 173 225 465 752 988 856 1411 1335 1328 1493 1569 1590 1383 1741 1819 1952 2189 1940 1922 1756 2030 1245 1657 1570 1342 1419 1541 730 872 668
463 216 134 219 295 169 162 260 418 619 440 370 487 537 274 106 219 718 704 1208 1465 1507 1672 1720 1643 1753 1863 2030 2107 2030 1963 1896 1969 1935 1941 1286 1410 1467 1387 1282 1174 633 519
423 316 227 224 401 276 307 587 666 749 571 519 810 789 713 473 629 1016 942 877 1669 1598 1825 1630 1743 1893 2018 2216 2353 2050 2102 2260 2197 2045 2005 1874 1230 1479 1628 1941 1474 1023 582
465 410 348 289 311 338 485 556 667 719 734 535 797 865 755 749 752 907 1036 1186 1223 1903 2215 2003 1801 1838 1923 2041 2170 1921 2112 2169 2030 1746 1922 2064 1402 2077 1642 2746 2199 1797 1774
705 574 500 488 463 487 512 573 721 609 523 741 1146 1123 914 881 876 839 1023 1106 1149 1537 1957 2177 2141 2068 1963 1897 1969 1897 1708 1699 1835 2009 1937 2152 2162 1188 1585 2196 2621 2709 2473
984 719 640 630 656 700 651 705 906 615 497 929 1184 1089 1122 1112 1060 1196 1252 1353 1415 1599 1687 1794 1891 1783 1729 1787 1877 1831 1634 1979 1971 1948 2086 1845 1996 1879 1827 1653 1869 2229 2284
1016 837 723 813 1032 899 1123 906 1099 1278 981 1303 882 1209 1229 1201 1172 1311 1458 1565 1714 1845 1814 1975 2045 1998 2109 2137 2129 2112 2047 2100 2046 1959 1969 1899 1828 1963 1433 1890 1686 2196 2404
857 1005 945 943 977 1361 1585 1496 1119 1349 1371 1021 749 1397 1326 1336 1356 1410 1499 1532 1741 1828 1882 1925 2096 2202 1994 1688 1553 1561 1783 1936 1843 1890 1954 1876 1871 1936 2320 2170 2137 2659 2427
1097 1094 1115 1096 1083 1150 1219 1332 1134 1529 1745 1527 1418 1354 1583 1614 1757 1745 1886 1969 1965 2035 2077 2049 1910 1606 1253 693 599 743 887 1221 1356 1401 1626 1746 1677 1295 1495 2005 2233 2248 2254
1296 1280 1227 1168 1094 1112 1444 1415 1776 1750 2198 1982 1669 1794 2128 1870 1515 1301 2013 2188 2433 2465 2213 1765 1278 967 589 378 320 191 199 307 593 748 982 1215 986 861 636 638 642 1429 2509
1340 1549 1460 1337 1238 1156 1304 1597 1679 1784 2035 2326 2120 2268 2344 2313 2393 2263 2259 2307 1714 1375 1390 1126 1026 836 706 612 444 444 375 174 334 355 285 284 260 639 1263 1047 774 685 661
1353 1639 1722 1551 1633 1393 1213 1361 1940 2162 1917 2220 2343 2596 2480 1341 1101 1034 1051 1007 954 1062 1045 897 690 360 95 0 0 0 0 72 90 223 548 524 547 732 1074 1669 1620 1614 1424
1487 1719 1854 1996 1819 1971 1610 1398 1644 2158 2114 1553 1644 1593 1277 1026 403 450 700 859 796 563 207 8 0 0 0 0 0 0 0 0 0 1 2 122 648 518 576 1123 1249 1517 1803
1500 1105 617 870 1758 1816 1598 1195 994 846 722 1006 1180 1281 1250 839 621 313 447 322 83 2 0 0 0 0 0 0 0 0 0 0 0 0 0 0 0 2 229 481 1110 1813 1204
638 596 633 965 1135 938 1178 972 812 893 786 845 811 875 835 621 466 331 184 73 4 0 0 0 0 0 0 0 0 0 0 0 0 0 0 0 0 2 11 47 976 1333 1596
625 646 1283 1097 1066 975 967 905 854 536 395 388 265 180 358 300 238 165 32 0 0 0 0 0 0 0 0 0 0 0 0 0 0 0 0 0 0 1 4 25 38 210 522
610 932 783 847 1020 973 437 58 66 17 5 62 83 126 217 213 88 0 0 0 0 0 0 0 0 0 0 0 0 0 0 0 0 0 0 0 0 0 0 0 14 227 731
740 1481 1143 979 836 850 561 306 20 116 56 88 102 124 68 0 0 0 0 0 0 0 0 0 0 0 0 0 0 0 0 0 2 0 0 0 0 0 0 15 0 250 566
1137 1279 1264 1040 771 1001 618 439 309 159 124 48 10 1 0 0 0 0 0 0 0 0 0 0 0 0 0 0 0 0 0 0 3 7 1 3 3 6 5 18 17 363 516
1401 1549 1217 1285 1147 1031 742 482 391 297 179 78 16 0 0 0 0 0 0 0 0 0 0 0 0 0 0 0 0 0 0 0 0 7 7 7 7 5 2 8 27 307 240

GFSMW_con_mucape_168.txt.gz
CAPE
148 243 205 153 165 198 318 436 416 549 817 553 389 228 146 98 132 290 1142 1612 1332 1688 2242 1039 1834 1957 1804 2146 1486 1371 1255 918 1482 1581 572 584 452 567 852 1106 935 929 1085
181 290 352 253 199 349 437 491 443 704 744 444 304 343 488 130 67 187 768 1662 1410 1431 1679 1681 1493 1712 1584 2311 2292 2091 1227 899 1503 1236 1252 709 473 581 693 985 1123 1454 1364
212 370 427 398 382 422 531 615 512 727 725 420 327 184 260 576 85 632 822 1139 1577 1528 1603 1775 2042 1956 2236 1577 1662 1610 1790 941 719 1672 1372 735 300 470 563 1088 1031 1633 1723
440 351 462 448 475 562 656 655 741 598 695 629 282 640 127 100 302 489 952 998 1581 1650 1400 1529 2033 2352 1488 1630 1489 1795 2002 1836 683 551 780 1448 1651 1007 574 440 770 905 1120
595 453 445 514 518 593 743 662 966 666 590 810 956 679 462 88 347 513 1096 1844 1750 1821 1260 1504 1725 2169 1859 1605 1833 1802 2201 1479 1291 731 333 415 550 1273 1264 717 653 409 288
632 579 470 587 607 600 801 773 1094 1081 612 824 708 876 850 667 748 907 1102 1183 1190 1462 1788 1585 1917 1985 1994 1951 1999 2100 2037 1921 1595 1161 868 485 207 465 468 500 342 476 427
671 708 588 577 677 749 866 882 1175 1272 681 746 741 725 857 902 1017 1200 877 1197 824 792 1064 2079 2062 1853 2206 1870 1948 2027 1951 1954 1671 1648 828 490 546 495 461 492 376 233 300
742 793 758 581 766 884 1020 954 1238 1452 1080 565 709 915 892 645 660 736 508 256 759 853 1110 2017 2213 2192 2003 2159 2022 2118 1940 1587 1725 1951 2070 1201 506 517 644 873 628 391 91
864 933 967 755 975 1104 1144 1128 1255 1618 1282 964 858 853 945 875 584 759 536 487 1445 1146 1605 2000 2067 2055 2163 2302 2265 2708 1633 2097 1886 1825 1928 1837 1244 507 720 1059 1008 688 419
1022 1117 1134 931 1109 1229 1267 1209 1322 1635 1505 1117 1198 1156 1019 1127 827 706 1181 981 1023 1642 1759 2171 2150 2087 2141 2422 2601 1967 1818 2346 1873 1472 1886 2081 1439 1242 1038 988 1247 1089 1554
1061 1272 1267 1150 1281 1381 1329 1343 1396 1667 1730 1497 1516 1600 1585 1597 1665 1240 1415 1597 1554 1498 2084 2192 2238 2239 2398 2474 2671 2731 2204 1898 2408 2130 1679 1824 2349 1576 1185 1150 1130 1253 1346
864 1434 1423 1387 1328 1496 1425 1395 1480 1655 1767 1740 1679 1666 1773 1797 1711 1705 1552 1758 1905 1818 1795 1867 2000 2168 2107 2200 2330 2250 1741 1786 1964 2101 2386 1948 1570 2223 1951 1427 1853 1551 1187
926 1623 1633 1674 1576 1629 1596 1422 1592 1693 1841 1622 1738 1890 1925 1992 1944 2027 2018 1943 2072 2105 1851 2009 2189 2265 2198 2194 2246 2396 2332 2052 1720 1603 1827 1959 1933 2678 1622 1673 1469 1485 1656
1331 1764 1764 1858 1878 1907 1980 1858 1780 1736 1931 1723 1870 2239 2174 2075 2160 2196 2530 2283 2349 2426 2295 2189 2227 2204 2323 2361 2398 2373 2215 2057 1771 1809 1922 2005 2065 2217 2305 2722 2141 1868 1596
1607 1764 1837 2070 2207 2210 2262 2262 2059 2141 2192 2178 2155 2363 2506 2376 2551 2549 2594 2877 2562 2548 2611 2483 2481 2414 2205 2018 2407 2210 1865 1651 1524 1414 1745 1953 1809 1454 1715 2904 3002 2910 2149
1914 1885 1993 2133 2394 2360 2478 2420 2398 2365 2622 2546 2322 2322 2577 2601 2594 2687 2702 2727 2936 3060 3076 3047 2878 2440 2224 1197 861 479 837 1091 1211 1202 1302 1396 989 836 831 960 947 1019 2656
1904 2150 2047 2151 2264 2318 2468 2490 2447 2401 2542 2767 2927 2866 3100 2887 2980 2765 2459 2444 3434 3208 3138 2710 2401 1972 1393 855 644 577 509 442 717 1079 1170 1166 615 361 911 928 820 619 441
1855 2277 2349 2380 2386 2255 2266 2430 2518 2621 2661 2995 2817 2789 3064 2966 3183 2977 2517 2792 1989 2191 1972 1305 726 690 639 562 384 124 0 0 0 3 74 268 562 1263 928 901 1079 1473 1687
1956 2365 2583 2643 2713 2433 2461 2615 2818 2845 2861 2817 2755 2932 2679 2935 2946 2430 1883 1025 696 575 552 498 443 393 113 2 0 0 0 0 0 0 0 0 3 37 205 670 1244 1660 2439
2099 2336 2555 2735 2835 2817 2554 2646 2880 2989 2816 2629 2638 2867 3024 1966 1721 851 679 495 394 433 261 66 0 0 0 0 0 0 0 0 0 0 0 0 0 0 0 3 769 988 1719
1957 1819 1983 2511 2794 2431 2306 1594 1712 1827 1967 1758 1463 1311 897 72 196 276 205 202 140 69 0 0 0 0 0 0 0 0 0 1 1 1 0 0 0 0 0 0 3 598 742
1409 1277 1629 1935 1592 1574 1308 838 860 837 713 520 641 643 336 221 253 227 253 129 26 0 0 0 0 0 0 0 0 0 0 0 0 0 0 0 0 0 0 0 3 2 4
1446 1719 1951 1579 1573 1928 1699 1225 992 924 736 654 523 350 243 176 54 94 106 28 0 0 0 0 0 0 0 0 0 0 0 0 0 0 0 0 0 0 0 0 0 5 8
1405 1824 1739 1577 1290 1387 1077 753 374 26 3 99 118 59 52 49 2 4 0 0 0 0 0 0 0 0 1 0 0 0 0 0 0 0 0 0 0 2 0 0 0 5 6
1357 1603 1621 1696 1223 1094 633 290 204 100 34 0 0 0 15 2 6 1 0 0 0 0 0 0 0 0 0 0 0 0 0 0 0 0 0 0 3 1 6 3 9 62 16
1760 2139 1385 1230 972 831 380 272 178 86 28 9 3 18 12 2 0 0 0 0 0 0 0 0 0 0 0 0 0 0 0 0 0 0 0 0 1 4 9 7 31 24 12